Weather History for KTOI - February, 2014

Change the Weather History Date:

Friday, February 21, 2014

  Actual Average Record
Temperature  
Mean Temperature 53 °F 51 °F  
Max Temperature 68 °F 64 °F 91 °F (2001)
Min Temperature 37 °F 39 °F 24 °F (2009)
Degree Days  
Heating Degree Days 12 14  
Month to date heating degree days 287 334  
Since 1 July heating degree days 1836 1826  
Growing Degree Days 4 (Base 50)    
Moisture  
Dew Point 51 °F    
Average Humidity 58    
Maximum Humidity 93    
Minimum Humidity 22    
Precipitation  
Precipitation 1.34 in 0.17 in 1.34 in (2014)
Month to date precipitation 5.19 3.38  
Year to date precipitation 8.39 7.93  
Snow  
Snow 0.00 in - - ()
Month to date snowfall 0.0  
Since 1 July snowfall 0.3  
Snow Depth 0.00 in    
Sea Level Pressure  
Sea Level Pressure 29.97 in    
Wind  
Wind Speed 8 mph (West)    
Max Wind Speed 35 mph    
Max Gust Speed 46 mph    
Visibility 7 miles    
Events Rain , Thunderstorm    
T = Trace of Precipitation, MM = Missing Value Source: NWS Daily Summary

Daily Weather History Graph

Daily Weather History Graph

Search for Another Location

Airport or City:

Trip Planner

Search our weather history database for the weather conditions in past years. The results will help you decide how hot, cold, wet, or windy it might be!

Date:

Astronomy

Feb. 21, 2014 Rise Set
Actual Time 6:20 AM CST 5:35 PM CST
Civil Twilight 5:55 AM CST 6:00 PM CST
Nautical Twilight 5:26 AM CST 6:28 PM CST
Astronomical Twilight 4:58 AM CST 6:57 PM CST
Moon No Moon Rise 10:07 AM CST (2/21)
Length of Visible Light 12h 05m
Length of Day
11h 15m
Waning Gibbous, 60% of the Moon is Illuminated
Feb 21
Waning Gibbous
Feb 22
Last Quarter
Mar 1
New
Mar 8
First Quarter
Mar 16
Full

Hourly Weather History & Observations

Time (CST) Temp. Dew Point Humidity Pressure Visibility Wind Dir Wind Speed Gust Speed Precip Events Conditions
12:05 AM 68.0 °F 64.9 °F 90% 29.91 in 8.0 mi South 13.8 mph - 0.00 in Rain Light Rain
12:34 AM 68.0 °F 64.9 °F 90% 29.90 in 10.0 mi South 8.1 mph 18.4 mph 0.00 in   Overcast
12:53 AM 68.0 °F 64.9 °F 90% 29.89 in 7.0 mi South 10.4 mph - 0.00 in   Overcast
1:04 AM 68.0 °F 64.9 °F 90% 29.90 in 6.0 mi South 12.7 mph 18.4 mph N/A   Overcast
1:41 AM 68.0 °F 64.9 °F 90% 29.89 in 7.0 mi South 8.1 mph 18.4 mph N/A   Overcast
1:51 AM 68.0 °F 64.4 °F 88% 29.88 in 6.0 mi South 12.7 mph 19.6 mph N/A Thunderstorm Overcast
1:53 AM 68.0 °F 64.9 °F 90% 29.87 in 6.0 mi South 15.0 mph 20.7 mph N/A Thunderstorm Overcast
1:58 AM 68.0 °F 64.9 °F 90% 29.90 in 2.0 mi South 16.1 mph 27.6 mph 0.14 in Rain , Thunderstorm Heavy Thunderstorms and Rain
2:01 AM 68.0 °F 64.9 °F 90% 29.89 in 1.5 mi South 11.5 mph 27.6 mph 0.20 in Rain , Thunderstorm Heavy Thunderstorms and Rain
2:09 AM 68.0 °F 64.9 °F 90% 29.88 in 3.0 mi South 12.7 mph 18.4 mph 0.21 in Rain , Thunderstorm Thunderstorms and Rain
2:29 AM 68.0 °F 64.0 °F 87% 29.88 in 9.0 mi South 10.4 mph - 0.23 in Rain , Thunderstorm Light Rain
2:49 AM 66.2 °F 64.4 °F 94% 29.88 in 10.0 mi South 9.2 mph - 0.23 in Rain Light Rain
2:53 AM 66.9 °F 64.0 °F 90% 29.87 in 10.0 mi South 9.2 mph - 0.23 in Rain Light Rain
2:57 AM 66.9 °F 64.0 °F 90% 29.88 in 7.0 mi South 9.2 mph - 0.00 in Rain Light Rain
3:07 AM 66.9 °F 64.9 °F 93% 29.88 in 4.0 mi South 9.2 mph - 0.03 in Rain , Thunderstorm Rain
3:16 AM 66.9 °F 64.9 °F 93% 29.87 in 4.0 mi SSW 10.4 mph - 0.07 in Rain , Thunderstorm Thunderstorms and Rain
3:20 AM 66.9 °F 64.9 °F 93% 29.90 in 1.5 mi SW 17.3 mph 24.2 mph 0.28 in Rain , Thunderstorm Heavy Thunderstorms and Rain
3:22 AM 66.9 °F 64.9 °F 93% 29.94 in 0.8 mi West 20.7 mph 34.5 mph 0.48 in Rain , Thunderstorm Heavy Thunderstorms and Rain
3:33 AM 64.0 °F 61.0 °F 90% 29.93 in 1.5 mi West 16.1 mph 24.2 mph 0.68 in Rain , Thunderstorm Heavy Thunderstorms and Rain
3:35 AM 64.0 °F 60.1 °F 87% 29.93 in 2.0 mi West 13.8 mph 24.2 mph 0.69 in Rain , Thunderstorm Heavy Thunderstorms and Rain
3:44 AM 64.0 °F 60.1 °F 87% 29.90 in 4.0 mi WNW 12.7 mph 23.0 mph 0.72 in Rain , Thunderstorm Thunderstorms and Rain
3:47 AM 64.4 °F 60.8 °F 88% 29.91 in 5.0 mi West 13.8 mph - 0.73 in Rain , Thunderstorm Thunderstorms and Rain
3:53 AM 63.0 °F 60.1 °F 90% 29.91 in 4.0 mi West 13.8 mph 26.5 mph 0.75 in Rain , Thunderstorm Rain
4:07 AM 63.0 °F 60.1 °F 90% 29.92 in 3.0 mi West 8.1 mph - 0.04 in Rain Rain
4:25 AM 63.0 °F 60.1 °F 90% 29.91 in 3.0 mi WSW 4.6 mph - 0.11 in Rain , Thunderstorm Heavy Thunderstorms and Rain
4:32 AM 63.0 °F 60.1 °F 90% 29.93 in 2.5 mi WSW 6.9 mph - 0.14 in Rain , Thunderstorm Heavy Thunderstorms and Rain
4:39 AM 63.0 °F 60.1 °F 90% 29.93 in 4.0 mi WSW 5.8 mph - 0.17 in Rain , Thunderstorm Heavy Thunderstorms and Rain
4:53 AM 62.1 °F 60.1 °F 93% 29.92 in 3.0 mi West 6.9 mph - 0.24 in Rain , Thunderstorm Heavy Thunderstorms and Rain
4:57 AM 61.0 °F 57.9 °F 90% 29.94 in 3.0 mi North - - 0.02 in Rain , Thunderstorm Heavy Thunderstorms and Rain
5:04 AM 55.0 °F 51.1 °F 86% 29.95 in 4.0 mi NW 23.0 mph 36.8 mph 0.05 in Rain , Thunderstorm Heavy Thunderstorms and Rain
5:13 AM 51.1 °F 46.9 °F 86% 29.96 in 5.0 mi NW 28.8 mph 46.0 mph 0.09 in Rain Rain
5:17 AM 51.1 °F 46.9 °F 86% 29.96 in 6.0 mi NW 23.0 mph 43.7 mph 0.11 in Rain Rain
5:34 AM 50.0 °F 46.0 °F 86% 30.00 in 10.0 mi NW 20.7 mph 29.9 mph 0.12 in Rain , Thunderstorm Light Rain
5:49 AM 50.0 °F 46.4 °F 87% 30.01 in 10.0 mi NW 16.1 mph - 0.12 in   Overcast
5:53 AM 50.0 °F 46.0 °F 86% 30.01 in 10.0 mi NW 11.5 mph - 0.12 in   Overcast
6:06 AM 50.0 °F 46.0 °F 86% 30.02 in 10.0 mi NNW 11.5 mph - N/A   Overcast
6:18 AM 50.0 °F 46.0 °F 86% 30.03 in 10.0 mi NNW 13.8 mph - N/A   Overcast
6:53 AM 50.0 °F 44.1 °F 80% 30.04 in 10.0 mi NNW 10.4 mph - N/A   Overcast
7:53 AM 50.0 °F 39.0 °F 66% 30.05 in 10.0 mi NNW 15.0 mph - N/A   Overcast
8:53 AM 53.1 °F 35.1 °F 50% 30.09 in 10.0 mi North 19.6 mph 26.5 mph N/A   Clear
9:53 AM 55.0 °F 32.0 °F 42% 30.09 in 10.0 mi North 17.3 mph 24.2 mph N/A   Clear
10:53 AM 59.0 °F 32.0 °F 36% 30.09 in 10.0 mi North 11.5 mph - N/A   Clear
11:53 AM 62.1 °F 28.9 °F 29% 30.08 in 10.0 mi North 10.4 mph 17.3 mph N/A   Clear
12:53 PM 62.1 °F 28.0 °F 28% 30.06 in 10.0 mi North 10.4 mph - N/A   Clear
1:53 PM 63.0 °F 28.0 °F 27% 30.05 in 10.0 mi NNW 9.2 mph 17.3 mph N/A   Clear
2:53 PM 64.0 °F 24.1 °F 22% 30.04 in 10.0 mi NNW 10.4 mph - N/A   Clear
3:53 PM 64.0 °F 24.1 °F 22% 30.05 in 10.0 mi NNW 9.2 mph - N/A   Clear
4:53 PM 62.1 °F 25.0 °F 24% 30.05 in 10.0 mi North 6.9 mph - N/A   Clear
5:53 PM 57.0 °F 30.0 °F 36% 30.06 in 10.0 mi Calm Calm - N/A   Clear
6:53 PM 48.0 °F 36.0 °F 63% 30.07 in 10.0 mi Calm Calm - N/A   Clear
7:53 PM 45.0 °F 36.0 °F 71% 30.09 in 10.0 mi Calm Calm - N/A   Clear
8:53 PM 42.1 °F 36.0 °F 79% 30.10 in 10.0 mi Calm Calm - N/A   Clear
9:53 PM 39.0 °F 35.1 °F 86% 30.12 in 10.0 mi Calm Calm - N/A   Clear
10:53 PM 39.9 °F 35.1 °F 83% 30.11 in 10.0 mi Calm Calm - N/A   Clear
11:53 PM 37.0 °F 34.0 °F 89% 30.11 in 10.0 mi Calm Calm - N/A   Clear